Tracking 28514 objects as of 23-Feb-2024
HD Live streaming from Space Station
objects crossing your sky now

STARLINK-6318

Track STARLINK-6318 now!
10-day predictions
STARLINK-6318 is classified as:


NORAD ID: 56530
Int'l Code: 2023-065AD
Perigee: 565.4 km
Apogee: 566.9 km
Inclination: 43.0 °
Period: 95.8 minutes
Semi major axis: 6937 km
RCS: Unknown
Launch date: May 14, 2023
Source: United States (US)
Launch site: AIR FORCE EASTERN TEST RANGE (AFETR)
Your satellite tracking list
Your tracking list is empty




NASA's NSSDC Master Catalog

Two Line Element Set (TLE):
1 56530U 23065AD  24053.94544226 -.00000049  00000-0  11408-4 0  9997
2 56530  43.0029 276.6286 0001069 279.3880  80.6841 15.02545460 43960
Source of the keplerian elements: AFSPC